Location: Banff
(51.1667°N, 115.5667°W)
Time: 21:46:26
(UTC+00:00)

Vanguard 1 - Visible Passes

Search period start: 28 November 2021 00:00
Search period end: 08 December 2021 00:00
Orbit: 653 x 3830 km, 34.3° (Epoch: 27 November)

Date Brightness Start Highest point End Pass type
(mag) Time Alt. Az. Time Alt. Az. Time Alt. Az.
28 Nov 13.7 07:56:34 18° ESE 07:56:34 18° ESE 08:00:38 10° E visible
28 Nov 12.9 10:09:15 42° SSE 10:09:15 42° SSE 10:23:08 10° ESE visible
28 Nov 12.7 12:21:58 26° WSW 12:31:18 41° SSW 12:42:40 10° SE visible
28 Nov 13.0 14:40:30 10° W 14:51:30 22° SW 14:59:04 10° S visible
29 Nov 13.6 08:16:11 23° ESE 08:16:11 23° ESE 08:22:07 10° E visible
29 Nov 12.8 10:28:53 44° S 10:29:32 44° S 10:43:55 10° ESE visible
29 Nov 12.7 12:41:35 23° WSW 12:51:53 38° SSW 13:02:59 10° SE visible
30 Nov 13.4 08:35:47 27° ESE 08:35:47 27° ESE 08:43:21 10° E visible
30 Nov 12.8 10:48:29 44° SSW 10:50:20 45° S 11:04:36 10° ESE visible
30 Nov 12.8 13:01:11 20° WSW 13:12:22 35° SSW 13:23:07 10° SSE visible
01 Dec 13.3 08:55:23 32° SE 08:55:23 32° SE 09:04:24 10° E visible
01 Dec 12.8 11:08:05 43° SSW 11:11:07 45° S 11:25:11 10° ESE visible
01 Dec 12.9 13:20:46 16° WSW 13:32:42 31° SSW 13:43:02 10° SSE visible
02 Dec 13.2 09:14:58 37° SE 09:14:58 37° SE 09:25:20 10° ESE visible
02 Dec 12.8 11:27:40 40° SW 11:31:50 44° SSW 11:45:39 10° SE visible
02 Dec 13.0 13:40:21 12° W 13:52:55 26° SW 14:02:40 10° S visible
03 Dec 13.9 07:21:52 13° E 07:21:52 13° E 07:23:22 10° E visible
03 Dec 13.1 09:34:33 41° SE 09:34:33 41° SE 09:46:09 10° ESE visible
03 Dec 12.8 11:47:15 37° SW 11:52:28 41° SSW 12:05:59 10° SE visible
03 Dec 13.2 14:00:41 10° W 14:12:58 22° SW 14:21:52 10° S visible
04 Dec 13.8 07:41:27 17° ESE 07:41:27 17° ESE 07:44:39 10° E visible
04 Dec 13.0 09:54:09 44° SSE 09:54:09 44° SSE 10:06:53 10° ESE visible
04 Dec 12.9 12:06:51 32° SW 12:13:00 38° SSW 12:26:08 10° SE visible
04 Dec 13.3 14:23:18 10° W 14:32:54 17° SW 14:40:23 10° SSW visible
05 Dec 13.7 08:01:03 21° ESE 08:01:03 21° ESE 08:05:46 10° E visible
05 Dec 12.9 10:13:45 46° SSE 10:13:45 46° SSE 10:27:30 10° ESE visible
05 Dec 13.0 12:26:27 28° WSW 12:33:23 34° SSW 12:46:04 10° SSE visible
05 Dec 13.5 14:47:29 10° WSW 14:52:41 12° WSW 14:57:13 10° SW visible
06 Dec14.006:07:59E06:07:59E05:26:45SSWvisible
06 Dec 13.6 08:20:41 25° ESE 08:20:41 25° ESE 08:26:45 10° ESE visible
06 Dec 12.9 10:33:23 46° S 10:33:23 46° S 10:48:00 10° SE visible
06 Dec 13.1 12:46:04 23° WSW 12:53:39 29° SW 13:05:43 10° SSE visible
07 Dec14.006:27:37E06:27:37E05:46:35SSWvisible
07 Dec 13.5 08:40:19 28° ESE 08:40:19 28° ESE 08:47:38 10° ESE visible
07 Dec 12.9 10:53:01 44° SSW 10:53:01 44° SSW 11:08:22 10° SE visible
07 Dec 13.3 13:05:43 19° WSW 13:13:46 25° SW 13:24:58 10° S visible
